Location: La Sioule Rivi�re
(46.3664°N, 3.3197°E)
Time: 13:00:28
(UTC+00:00)

Cosmos 1980 Rocket - Pass Details

Date: 29 October 2020
Orbit: 831 x 848 km, 71.0° (Epoch: 23 November)

Event Time Altitude Azimuth Distance (km) Brightness Sun altitude
Rises 19:12:28 0° 211° (SSW) 3,378 5.6 -27.5°
Reaches altitude 10° 19:14:55 10° 213° (SSW) 2,445 4.9 -27.9°
Maximum altitude 19:20:31 72° 298° (WNW) 880 2.3 -28.8°
Enters shadow 19:21:20 61° 351° (N) 942 2.4 -29.0°
